Tracking 28895 objects as of 29-May-2024
HD Live streaming from Space Station
objects crossing your sky now

STARLINK-5318

Track STARLINK-5318 now!
10-day predictions
STARLINK-5318 is classified as:


NORAD ID: 55304
Int'l Code: 2023-010AM
Perigee: 577.2 km
Apogee: 581.2 km
Inclination: 70.0 °
Period: 96.1 minutes
Semi major axis: 6950 km
RCS: Unknown
Launch date: January 19, 2023
Source: United States (US)
Launch site: AIR FORCE WESTERN TEST RANGE (AFWTR)
Your satellite tracking list
Your tracking list is empty




NASA's NSSDC Master Catalog

Two Line Element Set (TLE):
1 55304U 23010AM  24149.57927836  .00000505  00000-0  50076-4 0  9992
2 55304  70.0009 223.4215 0002899 266.7259  93.3568 14.98337058 75890
Source of the keplerian elements: AFSPC